| time (UTC) | temp F | wind direction | speed MPH | gust MPH | rain 1hr in | rain 24hr in | rain mn in | humidity % | barometer mb |
| 20260505010033 | 78 | 301 | 8.0 | 18.0 | 0.00 | 0.00 | 0.00 | 45 | 1001.4 |
| 20260505004536 | 78 | 297 | 8.0 | 17.0 | 0.00 | 0.00 | 0.00 | 45 | 1001.4 |
| 20260505001532 | 79 | 299 | 9.0 | 19.0 | 0.00 | 0.00 | 0.00 | 44 | 1001.4 |
| 20260505000032 | 79 | 296 | 8.0 | 18.0 | 0.00 | 0.00 | 0.00 | 44 | 1001.5 |
| 20260504234532 | 80 | 300 | 8.0 | 18.0 | 0.00 | 0.00 | 0.00 | 44 | 1001.4 |
| 20260504233032 | 80 | 302 | 8.0 | 21.0 | 0.00 | 0.00 | 0.00 | 44 | 1001.4 |
| 20260504231529 | 80 | 299 | 9.0 | 18.0 | 0.00 | 0.00 | 0.00 | 43 | 1001.5 |
| 20260504230031 | 80 | 292 | 8.0 | 19.0 | 0.00 | 0.00 | 0.00 | 43 | 1001.7 |
| 20260504224531 | 81 | 297 | 8.0 | 14.0 | 0.00 | 0.00 | 0.00 | 42 | 1001.8 |
| 20260504223102 | 81 | 297 | 6.0 | 14.0 | 0.00 | 0.00 | 0.00 | 42 | 1002.1 |
| 20260504221531 | 82 | 294 | 7.0 | 14.0 | 0.00 | 0.00 | 0.00 | 41 | 1002.2 |
| 20260504214531 | 81 | 294 | 5.0 | 13.0 | 0.00 | 0.00 | 0.00 | 42 | 1002.4 |
| 20260504213112 | 81 | 299 | 7.0 | 15.0 | 0.00 | 0.00 | 0.00 | 42 | 1002.6 |
| 20260504210030 | 81 | 294 | 6.0 | 13.0 | 0.00 | 0.00 | 0.00 | 43 | 1002.8 |
| 20260504203052 | 80 | 296 | 6.0 | 14.0 | 0.00 | 0.00 | 0.00 | 43 | 1003.1 |
| 20260504201529 | 79 | 290 | 7.0 | 14.0 | 0.00 | 0.00 | 0.00 | 44 | 1003.3 |
| 20260504200146 | 78 | 291 | 7.0 | 15.0 | 0.00 | 0.00 | 0.00 | 45 | 1003.5 |
| 20260504194646 | 78 | 296 | 7.0 | 16.0 | 0.00 | 0.00 | 0.00 | 46 | 1003.5 |
| 20260504193031 | 78 | 292 | 6.0 | 16.0 | 0.00 | 0.00 | 0.00 | 46 | 1003.6 |
| 20260504190032 | 76 | 294 | 7.0 | 17.0 | 0.00 | 0.00 | 0.00 | 47 | 1003.8 |
| 20260504184602 | 76 | 291 | 6.0 | 15.0 | 0.00 | 0.00 | 0.00 | 47 | 1003.9 |
| 20260504183031 | 76 | 291 | 6.0 | 13.0 | 0.00 | 0.00 | 0.00 | 49 | 1003.9 |
| 20260504180032 | 76 | 293 | 6.0 | 13.0 | 0.00 | 0.00 | 0.00 | 48 | 1004.0 |
| 20260504174531 | 76 | 299 | 5.0 | 11.0 | 0.00 | 0.00 | 0.00 | 47 | 1004.1 |
| 20260504171537 | 74 | 295 | 2.0 | 5.0 | 0.00 | 0.00 | 0.00 | 50 | 1004.1 |
| 20260504090108 | 59 | 202 | 0.0 | 0.0 | 0.00 | 0.00 | 0.00 | 65 | 1003.9 |
| 20260504081530 | 61 | 202 | 0.0 | 0.0 | 0.00 | 0.00 | 0.00 | 61 | 1004.0 |
| 20260504070106 | 64 | 202 | 0.0 | 3.0 | 0.00 | 0.00 | 0.00 | 56 | 1003.8 |
| 20260504044531 | 71 | 202 | 0.0 | 1.0 | 0.00 | 0.00 | 0.00 | 46 | 1003.1 |
| 20260504043037 | 72 | 202 | 0.0 | 1.0 | 0.00 | 0.00 | 0.00 | 44 | 1003.0 |
| 20260504041530 | 73 | 202 | 0.0 | 1.0 | 0.00 | 0.00 | 0.00 | 42 | 1002.7 |
| 20260504040042 | 74 | 191 | 1.0 | 2.0 | 0.00 | 0.00 | 0.00 | 41 | 1002.6 |
| 20260504034531 | 76 | 157 | 1.0 | 3.0 | 0.00 | 0.00 | 0.00 | 37 | 1002.4 |
| 20260504031538 | 79 | 112 | 5.0 | 7.0 | 0.00 | 0.00 | 0.00 | 32 | 1002.0 |
| 20260504030030 | 81 | 112 | 4.0 | 6.0 | 0.00 | 0.00 | 0.00 | 32 | 1002.0 |
| 20260504024610 | 82 | 112 | 3.0 | 4.0 | 0.00 | 0.00 | 0.00 | 31 | 1002.0 |
| 20260504021532 | 83 | 112 | 2.0 | 3.0 | 0.00 | 0.00 | 0.00 | 30 | 1002.2 |
| 20260504020030 | 84 | 112 | 2.0 | 4.0 | 0.00 | 0.00 | 0.00 | 29 | 1002.3 |
| 20260504014531 | 85 | 111 | 2.0 | 4.0 | 0.00 | 0.00 | 0.00 | 28 | 1002.4 |
| 20260504013033 | 87 | 85 | 1.0 | 3.0 | 0.00 | 0.00 | 0.00 | 26 | 1002.5 |
| 20260504011532 | 87 | 51 | 2.0 | 5.0 | 0.00 | 0.00 | 0.00 | 26 | 1002.5 |